[[{"header":{"parameterUnit":"m.s-1","parameterCategory":2,"la1":30.2992,"la2":30.254,"lo1":-89.0895,"lo2":-89.0443,"dy":0.0025,"dx":0.0025,"nx":19,"ny":19,"refTime":"2026-04-18T09:00:00:Z","depth":"0","parameterNumber":2,"parameterNumberName":"U-component_of_CURRENTS"},"data":[0,0,0,-0.3504,-0.3507,-0.3618,-0.3618,-0.3702,-0.3703,0,0,0,0,0,0,0,0,0,0,0,-0.3443,-0.3443,-0.3503,-0.3507,-0.3618,-0.3619,-0.3702,-0.3703,0,0,0,0,0,0,0,0,0,0,0,-0.3442,-0.3443,-0.3444,-0.3507,-0.3618,-0.3619,-0.3702,-0.3629,0,0,0,0,0,0,0,0,0,0,-0.3526,-0.3472,-0.3443,-0.3444,-0.3508,-0.3618,-0.3619,-0.3625,-0.3633,-0.364,0,-0.3656,0,-0.3698,-0.3709,-0.3709,0,0,0,-0.3491,-0.3466,-0.3515,-0.3444,-0.3509,-0.3618,-0.3563,-0.363,-0.3639,-0.365,-0.3658,-0.3662,-0.37,-0.3709,-0.371,-0.3817,-0.3818,0,0,-0.3485,-0.3445,-0.3509,-0.352,-0.3537,-0.356,-0.3567,-0.3636,-0.3631,-0.3658,-0.3665,-0.3701,-0.371,-0.3711,-0.3817,-0.3817,0,0,0,-0.3478,-0.344,-0.3489,-0.3516,-0.355,-0.3564,-0.3572,-0.3627,-0.3649,-0.3666,-0.3702,-0.371,-0.3711,-0.3816,-0.3817,-0.3869,0,0,0,-0.3473,-0.3439,-0.3486,-0.3461,-0.3549,-0.3597,-0.3561,-0.3643,-0.3654,-0.3702,-0.371,-0.3712,-0.3815,-0.3816,-0.3866,-0.3898,0,0,0,-0.3438,-0.3435,-0.3452,-0.3459,-0.352,-0.3598,-0.3622,-0.3646,-0.3676,-0.3709,-0.3712,-0.3815,-0.3816,-0.3864,-0.3894,-0.3953,0,0,0,-0.3389,-0.3432,-0.345,-0.3515,-0.3519,-0.3635,-0.3622,-0.369,-0.3722,-0.3711,-0.3816,-0.3817,-0.3863,-0.3891,-0.395,-0.3993,-0.4011,0,0,-0.3426,-0.3434,-0.3481,-0.3502,-0.3614,-0.3619,-0.3727,-0.3751,-0.3741,-0.3784,-0.3788,-0.3867,-0.3893,-0.3952,-0.4066,-0.4082,0,0,0,-0.3484,-0.3506,-0.3546,-0.3611,-0.3692,-0.3758,-0.3792,-0.3809,-0.3842,-0.377,-0.3878,-0.3894,-0.3929,-0.3949,-0.3962,-0.3974,-0.3823,-0.3822,-0.3822,-0.3441,-0.352,-0.3589,-0.3684,-0.3759,-0.3855,-0.3906,-0.393,-0.3907,-0.3926,-0.3944,-0.4036,-0.4058,-0.4068,-0.408,-0.3948,-0.3949,-0.3949,-0.3949,-0.347,-0.3495,-0.3603,-0.3695,-0.3792,-0.388,-0.3999,-0.4006,-0.4075,-0.402,-0.4051,-0.4013,-0.4085,-0.4093,-0.3952,-0.3952,-0.3951,-0.3951,-0.3951,-0.3403,-0.3422,-0.3498,-0.3618,-0.3739,-0.3871,-0.4005,-0.4079,-0.4115,-0.4158,-0.4175,-0.4174,-0.4175,-0.4165,-0.4165,-0.4166,-0.4166,-0.4166,-0.4167,-0.3271,-0.3355,-0.3385,-0.3534,-0.3604,-0.3758,-0.3996,-0.4104,-0.4231,-0.425,-0.425,-0.4219,-0.4102,-0.4087,-0.4173,-0.4172,-0.4171,-0.417,-0.417,-0.3145,-0.3182,-0.3224,-0.3284,-0.3466,-0.3593,-0.3881,-0.4176,-0.4309,-0.4376,-0.4387,-0.4308,-0.43,-0.4289,-0.4279,-0.441,-0.441,-0.441,-0.441,-0.301,-0.3051,-0.305,-0.311,-0.3259,-0.3491,-0.3745,-0.4093,-0.4382,-0.4455,-0.4492,-0.4446,-0.4435,-0.4432,-0.4418,-0.4408,-0.4569,-0.4569,-0.4569,-0.2887,-0.2923,-0.2861,-0.2961,-0.3138,-0.3368,-0.3594,-0.4064,-0.447,-0.4574,-0.4506,-0.45,-0.4424,-0.4407,-0.4389,-0.4369,-0.4348,0,0]},{"header":{"parameterUnit":"m.s-1","parameterCategory":2,"la1":30.2992,"la2":30.254,"lo1":-89.0895,"lo2":-89.0443,"dy":0.0025,"dx":0.0025,"nx":19,"ny":19,"refTime":"2026-04-18T09:00:00:Z","depth":"0","parameterNumber":3,"parameterNumberName":"V-component_of_CURRENTS"},"data":[0,0,0,-0.0393,-0.039,-0.0254,-0.0253,-0.0067,-0.0066,0,0,0,0,0,0,0,0,0,0,0,-0.0445,-0.0444,-0.0393,-0.039,-0.0254,-0.0253,-0.0067,-0.0066,0,0,0,0,0,0,0,0,0,0,0,-0.0445,-0.0444,-0.0444,-0.039,-0.0254,-0.0253,-0.0068,-0.0169,0,0,0,0,0,0,0,0,0,0,-0.0301,-0.0368,-0.0445,-0.0444,-0.0389,-0.0254,-0.0253,-0.0173,-0.0162,-0.0132,0,-0.0127,0,-0.0098,-0.0055,-0.0054,0,0,0,-0.037,-0.0377,-0.0333,-0.0444,-0.0388,-0.0255,-0.031,-0.0167,-0.0155,-0.0118,-0.0124,-0.0117,-0.0095,-0.0054,-0.0053,0.0028,0.0027,0,0,-0.0378,-0.042,-0.0342,-0.0326,-0.0372,-0.0314,-0.0306,-0.016,-0.0159,-0.0123,-0.0112,-0.0092,-0.0053,-0.0052,0.0028,0.0027,0,0,0,-0.0413,-0.0426,-0.0385,-0.0334,-0.0313,-0.0311,-0.0301,-0.0166,-0.0151,-0.011,-0.009,-0.0052,-0.005,0.0028,0.0028,-0.0099,0,0,0,-0.0416,-0.0447,-0.0389,-0.0412,-0.0317,-0.0242,-0.0311,-0.0161,-0.0143,-0.009,-0.0052,-0.0048,0.0029,0.0028,-0.0095,-0.0177,0,0,0,-0.0447,-0.045,-0.0439,-0.0415,-0.0363,-0.0244,-0.0219,-0.0156,-0.0131,-0.0054,-0.0048,0.0029,0.0028,-0.0091,-0.0169,-0.0153,0,0,0,-0.0487,-0.0523,-0.0441,-0.0474,-0.0365,-0.0328,-0.022,-0.0176,-0.0124,-0.0051,0.0029,0.0028,-0.009,-0.0164,-0.0149,-0.0151,-0.0168,0,0,-0.0564,-0.0534,-0.0554,-0.0477,-0.0492,-0.0344,-0.0337,-0.0217,-0.012,-0.0014,-0.0011,-0.0096,-0.0168,-0.0152,-0.0197,-0.0212,0,0,0,-0.0599,-0.0619,-0.0607,-0.059,-0.052,-0.046,-0.0326,-0.025,-0.0147,-0.0093,-0.0077,-0.0118,-0.0103,-0.0096,-0.0109,0.0325,0.0024,0.0024,0.0024,-0.0752,-0.0713,-0.0758,-0.0704,-0.0668,-0.0531,-0.0466,-0.0333,-0.0224,-0.0196,-0.0206,-0.0266,-0.0261,-0.027,0.0177,-0.0173,-0.0173,-0.0174,-0.0174,-0.0897,-0.0934,-0.0876,-0.0905,-0.0811,-0.0774,-0.0596,-0.0496,-0.0369,-0.0291,-0.0268,-0.0214,-0.0291,0.0191,-0.0182,-0.0181,-0.018,-0.0179,-0.0178,-0.1009,-0.1028,-0.1026,-0.1062,-0.1047,-0.0927,-0.0907,-0.0721,-0.0513,-0.0492,-0.0396,-0.0393,0.0023,-0.0451,-0.0451,-0.0451,-0.0452,-0.0452,-0.0452,-0.1131,-0.1135,-0.1217,-0.1228,-0.1261,-0.1243,-0.1077,-0.0975,-0.0723,-0.0545,-0.0543,0.0059,-0.0349,-0.0347,-0.0457,-0.0456,-0.0456,-0.0455,-0.0455,-0.1289,-0.1278,-0.1424,-0.1481,-0.156,-0.1645,-0.1447,-0.1201,-0.0995,-0.0862,-0.0032,-0.0529,-0.0476,-0.0464,-0.0463,-0.0597,-0.0597,-0.0597,-0.0597,-0.1396,-0.1401,-0.1618,-0.1761,-0.1867,-0.1843,-0.1863,-0.1466,-0.0586,-0.0064,0.0159,0.028,0.0267,0.0374,0.0367,0.0391,0.0477,0.048,0.0482,-0.1512,-0.1565,-0.1753,-0.1884,-0.2022,-0.2081,-0.2123,-0.1624,-0.0178,0.0576,0.0771,0.0725,0.0957,0.09,0.1109,0.1064,0.1115,0,0]}],[{"header":{"parameterUnit":"m.s-1","parameterCategory":2,"la1":30.2992,"la2":30.254,"lo1":-89.0895,"lo2":-89.0443,"dy":0.0025,"dx":0.0025,"nx":19,"ny":19,"refTime":"2026-04-18T09:00:00:Z","depth":"2","parameterNumber":2,"parameterNumberName":"U-component_of_CURRENTS"},"data":[0,0,0,-0.3456,-0.3459,-0.3573,-0.3573,-0.3659,-0.366,0,0,0,0,0,0,0,0,0,0,0,-0.3395,-0.3395,-0.3456,-0.3459,-0.3573,-0.3574,-0.3659,-0.366,0,0,0,0,0,0,0,0,0,0,0,-0.3394,-0.3395,-0.3396,-0.346,-0.3573,-0.3574,-0.3659,-0.3584,0,0,0,0,0,0,0,0,0,0,-0.3479,-0.3425,-0.3395,-0.3396,-0.346,-0.3573,-0.3574,-0.3581,-0.3588,-0.3595,0,-0.3611,0,-0.3654,-0.3665,-0.3666,0,0,0,-0.3444,-0.3419,-0.3468,-0.3396,-0.3462,-0.3573,-0.3517,-0.3585,-0.3594,-0.3605,-0.3613,-0.3617,-0.3655,-0.3666,-0.3666,-0.3774,-0.3774,0,0,-0.3437,-0.3398,-0.3462,-0.3474,-0.349,-0.3514,-0.3521,-0.3591,-0.3587,-0.3613,-0.362,-0.3656,-0.3667,-0.3667,-0.3773,-0.3774,0,0,0,-0.343,-0.3394,-0.3442,-0.3469,-0.3504,-0.3518,-0.3526,-0.3583,-0.3605,-0.3622,-0.3657,-0.3667,-0.3668,-0.3773,-0.3773,-0.3825,0,0,0,-0.3425,-0.3391,-0.3439,-0.3414,-0.3503,-0.3552,-0.3516,-0.3599,-0.3609,-0.3657,-0.3667,-0.3669,-0.3772,-0.3773,-0.3823,-0.3854,0,0,0,-0.339,-0.3388,-0.3404,-0.3412,-0.3474,-0.3553,-0.3577,-0.3602,-0.3632,-0.3666,-0.3669,-0.3772,-0.3773,-0.382,-0.3849,-0.3908,0,0,0,-0.3341,-0.3384,-0.3403,-0.3467,-0.3473,-0.3589,-0.3577,-0.3646,-0.3678,-0.3668,-0.3772,-0.3773,-0.382,-0.3847,-0.3904,-0.3914,-0.393,0,0,-0.3377,-0.3386,-0.3432,-0.3454,-0.3565,-0.3572,-0.368,-0.3706,-0.3697,-0.374,-0.3744,-0.3824,-0.3849,-0.3907,-0.3987,-0.4,0,0,0,-0.3435,-0.3456,-0.3497,-0.3562,-0.3643,-0.371,-0.3746,-0.3763,-0.3798,-0.3727,-0.3835,-0.385,-0.3884,-0.3884,-0.3895,-0.3779,-0.3779,-0.3779,-0.3779,-0.3393,-0.347,-0.3539,-0.3633,-0.3709,-0.3806,-0.3858,-0.3883,-0.3862,-0.3882,-0.39,-0.3991,-0.3991,-0.3999,-0.3904,-0.3904,-0.3905,-0.3905,-0.3905,-0.3421,-0.3445,-0.3553,-0.3644,-0.3741,-0.383,-0.395,-0.3958,-0.4028,-0.3975,-0.4006,-0.3948,-0.4014,-0.3909,-0.3909,-0.3908,-0.3907,-0.3907,-0.3907,-0.3354,-0.3373,-0.3449,-0.3568,-0.369,-0.3822,-0.3955,-0.403,-0.4068,-0.4111,-0.4106,-0.4104,-0.4028,-0.4119,-0.4119,-0.4119,-0.412,-0.412,-0.412,-0.3222,-0.3307,-0.3338,-0.3486,-0.3556,-0.3709,-0.3946,-0.4053,-0.4167,-0.4177,-0.4177,-0.4063,-0.4056,-0.4041,-0.4127,-0.4125,-0.4125,-0.4124,-0.4124,-0.3095,-0.3134,-0.3177,-0.3237,-0.3419,-0.3507,-0.3819,-0.4098,-0.4235,-0.429,-0.4224,-0.4219,-0.4208,-0.4199,-0.4187,-0.4306,-0.4306,-0.4306,-0.4306,-0.296,-0.3001,-0.3004,-0.3064,-0.3211,-0.3394,-0.3538,-0.3696,-0.3948,-0.3938,-0.3952,-0.3862,-0.3866,-0.3828,-0.3827,-0.3804,-0.3822,-0.3821,-0.3819,-0.2837,-0.2874,-0.2814,-0.2916,-0.309,-0.3233,-0.3233,-0.316,-0.3368,-0.3781,-0.3668,-0.4312,-0.4219,-0.421,-0.4181,-0.4168,-0.4143,0,0]},{"header":{"parameterUnit":"m.s-1","parameterCategory":2,"la1":30.2992,"la2":30.254,"lo1":-89.0895,"lo2":-89.0443,"dy":0.0025,"dx":0.0025,"nx":19,"ny":19,"refTime":"2026-04-18T09:00:00:Z","depth":"2","parameterNumber":3,"parameterNumberName":"V-component_of_CURRENTS"},"data":[0,0,0,-0.0342,-0.034,-0.0206,-0.0205,-0.0021,-0.002,0,0,0,0,0,0,0,0,0,0,0,-0.0393,-0.0393,-0.0342,-0.034,-0.0206,-0.0205,-0.0021,-0.002,0,0,0,0,0,0,0,0,0,0,0,-0.0393,-0.0393,-0.0392,-0.0339,-0.0206,-0.0205,-0.0022,-0.0121,0,0,0,0,0,0,0,0,0,0,-0.025,-0.0317,-0.0393,-0.0392,-0.0339,-0.0207,-0.0205,-0.0126,-0.0115,-0.0084,0,-0.0079,0,-0.0051,-0.0009,-0.0008,0,0,0,-0.0319,-0.0326,-0.0283,-0.0392,-0.0338,-0.0207,-0.0261,-0.0119,-0.0107,-0.007,-0.0076,-0.0069,-0.0048,-0.0008,-0.0007,0.0073,0.0073,0,0,-0.0327,-0.0369,-0.0292,-0.0276,-0.0323,-0.0265,-0.0257,-0.0112,-0.0112,-0.0076,-0.0065,-0.0045,-0.0007,-0.0005,0.0074,0.0073,0,0,0,-0.0362,-0.0374,-0.0334,-0.0284,-0.0264,-0.0262,-0.0252,-0.0118,-0.0103,-0.0063,-0.0043,-0.0006,-0.0004,0.0074,0.0074,-0.0053,0,0,0,-0.0365,-0.0395,-0.0338,-0.0361,-0.0267,-0.0194,-0.0262,-0.0113,-0.0096,-0.0044,-0.0006,-0.0002,0.0075,0.0074,-0.0049,-0.013,0,0,0,-0.0396,-0.0398,-0.0388,-0.0364,-0.0313,-0.0195,-0.0171,-0.0109,-0.0085,-0.0008,-0.0002,0.0075,0.0074,-0.0045,-0.0122,-0.0107,0,0,0,-0.0434,-0.0471,-0.0389,-0.0422,-0.0315,-0.0279,-0.0172,-0.0129,-0.0077,-0.0005,0.0074,0.0074,-0.0044,-0.0118,-0.0103,-0.0107,-0.0124,0,0,-0.051,-0.0481,-0.0501,-0.0426,-0.044,-0.0294,-0.0288,-0.017,-0.0073,0.0033,0.0035,-0.005,-0.0122,-0.0106,-0.0152,-0.0168,0,0,0,-0.0545,-0.0565,-0.0554,-0.0538,-0.0469,-0.041,-0.0277,-0.0202,-0.01,-0.0046,-0.003,-0.0072,-0.0057,-0.0051,-0.0064,0.007,0.007,0.007,0.007,-0.0697,-0.0659,-0.0704,-0.065,-0.0615,-0.048,-0.0416,-0.0285,-0.0177,-0.0149,-0.016,-0.022,-0.0216,-0.0225,-0.0126,-0.0126,-0.0127,-0.0127,-0.0128,-0.0842,-0.0878,-0.0821,-0.085,-0.0758,-0.0721,-0.0545,-0.0447,-0.0322,-0.0244,-0.0222,-0.0168,-0.0246,-0.0137,-0.0135,-0.0134,-0.0133,-0.0132,-0.0132,-0.0953,-0.0971,-0.097,-0.1007,-0.0993,-0.0874,-0.0855,-0.0671,-0.0465,-0.0445,-0.0351,-0.0348,-0.0288,-0.0405,-0.0405,-0.0405,-0.0406,-0.0406,-0.0406,-0.1072,-0.1077,-0.116,-0.1172,-0.1205,-0.1188,-0.1024,-0.0924,-0.0675,-0.05,-0.0497,-0.0311,-0.0302,-0.0301,-0.0411,-0.041,-0.0409,-0.0409,-0.0409,-0.1227,-0.1218,-0.1365,-0.1423,-0.1502,-0.1567,-0.1387,-0.1145,-0.0946,-0.0815,-0.0489,-0.0485,-0.0432,-0.042,-0.0419,-0.0553,-0.0553,-0.0553,-0.0553,-0.1331,-0.1337,-0.1557,-0.1701,-0.1806,-0.1757,-0.1744,-0.1356,-0.0887,-0.0599,-0.0597,-0.0554,-0.0547,-0.0496,-0.0482,-0.048,-0.063,-0.063,-0.0631,-0.1443,-0.1499,-0.1688,-0.1823,-0.1959,-0.1972,-0.1941,-0.1446,-0.0751,-0.0634,-0.061,-0.0559,-0.0486,-0.0479,-0.0387,-0.0371,-0.0361,0,0]}],[{"header":{"parameterUnit":"m.s-1","parameterCategory":2,"la1":30.2992,"la2":30.254,"lo1":-89.0895,"lo2":-89.0443,"dy":0.0025,"dx":0.0025,"nx":19,"ny":19,"refTime":"2026-04-18T09:00:00:Z","depth":"4","parameterNumber":2,"parameterNumberName":"U-component_of_CURRENTS"},"data":[0,0,0,-0.2298,-0.2303,-0.258,-0.2581,-0.2805,-0.2806,0,0,0,0,0,0,0,0,0,0,0,-0.2203,-0.2205,-0.2297,-0.2304,-0.258,-0.2582,-0.2804,-0.2806,0,0,0,0,0,0,0,0,0,0,0,-0.2202,-0.2204,-0.2206,-0.2305,-0.258,-0.2582,-0.2804,-0.263,0,0,0,0,0,0,0,0,0,0,-0.2378,-0.231,-0.2204,-0.2207,-0.2306,-0.258,-0.2582,-0.2623,-0.2641,-0.2639,0,-0.2688,0,-0.2747,-0.2817,-0.2818,0,0,0,-0.2313,-0.2295,-0.2365,-0.2207,-0.2309,-0.2579,-0.2458,-0.2634,-0.2654,-0.2662,-0.2692,-0.2702,-0.275,-0.2818,-0.2819,-0.2999,-0.3,0,0,-0.2297,-0.2257,-0.2352,-0.2378,-0.2386,-0.2449,-0.2466,-0.2648,-0.2669,-0.2693,-0.2708,-0.2754,-0.282,-0.2821,-0.2998,-0.2999,0,0,0,-0.2248,-0.2246,-0.2315,-0.2367,-0.2426,-0.2457,-0.2477,-0.2662,-0.2684,-0.271,-0.2757,-0.282,-0.2823,-0.2997,-0.2999,-0.3054,0,0,0,-0.2239,-0.2216,-0.2307,-0.2287,-0.2423,-0.2566,-0.2487,-0.2672,-0.2695,-0.2755,-0.2821,-0.2824,-0.2997,-0.2998,-0.3051,-0.307,0,0,0,-0.2189,-0.2211,-0.2244,-0.2283,-0.24,-0.2565,-0.26,-0.2679,-0.2721,-0.2818,-0.2825,-0.2996,-0.2998,-0.3048,-0.3066,-0.3115,0,0,0,-0.2136,-0.2192,-0.2244,-0.2333,-0.2397,-0.2571,-0.26,-0.2744,-0.2832,-0.2821,-0.2997,-0.2998,-0.3047,-0.3063,-0.3112,-0.2757,0,0,0,-0.2169,-0.2195,-0.2249,-0.2302,-0.245,-0.2533,-0.2699,-0.2822,-0.285,-0.2927,-0.2934,-0.3052,-0.3066,-0.3115,-0.2861,0,0,0,0,-0.2236,-0.2272,-0.2329,-0.2434,-0.2561,-0.2699,-0.2824,-0.2879,-0.2995,-0.291,-0.3071,-0.3078,-0.3107,-0.2892,-0.3007,-0.3007,-0.3006,-0.3006,-0.3006,-0.2201,-0.229,-0.239,-0.252,-0.2639,-0.2826,-0.2934,-0.3028,-0.3048,-0.3106,-0.3138,-0.3232,-0.3008,-0.3156,-0.3157,-0.3157,-0.3157,-0.3157,-0.3158,-0.2221,-0.2257,-0.2418,-0.2548,-0.2711,-0.2861,-0.3051,-0.3106,-0.3236,-0.3215,-0.3241,-0.2983,-0.3163,-0.3162,-0.3161,-0.3161,-0.316,-0.316,-0.316,-0.2142,-0.2167,-0.2298,-0.2486,-0.2685,-0.2886,-0.3036,-0.3185,-0.3275,-0.333,-0.3106,-0.3278,-0.3256,-0.3353,-0.3353,-0.3353,-0.3354,-0.3354,-0.3354,-0.1969,-0.2101,-0.2196,-0.242,-0.2548,-0.2748,-0.3043,-0.3132,-0.3277,-0.3135,-0.3356,-0.3298,-0.3292,-0.3268,-0.3359,-0.3358,-0.3358,-0.3357,-0.3357,-0.1789,-0.1895,-0.2005,-0.2133,-0.2408,-0.2532,-0.2865,-0.2979,-0.3051,-0.3004,-0.3026,-0.3041,-0.2988,-0.299,-0.2953,-0.2955,-0.295,-0.2946,0,-0.164,-0.1706,-0.1838,-0.1971,-0.2118,-0.2385,-0.244,-0.2616,-0.2744,-0.2638,-0.3023,-0.3041,-0.305,-0.2986,-0.2981,-0.2933,0,0,0,-0.1502,-0.1584,-0.1608,-0.1805,-0.1965,-0.2159,-0.2436,-0.2408,-0.2723,-0.2715,-0.284,-0.2868,-0.3197,-0.3374,-0.3331,-0.3323,-0.3283,0,0]},{"header":{"parameterUnit":"m.s-1","parameterCategory":2,"la1":30.2992,"la2":30.254,"lo1":-89.0895,"lo2":-89.0443,"dy":0.0025,"dx":0.0025,"nx":19,"ny":19,"refTime":"2026-04-18T09:00:00:Z","depth":"4","parameterNumber":3,"parameterNumberName":"V-component_of_CURRENTS"},"data":[0,0,0,-0.0045,-0.0044,0.0023,0.0024,0.0144,0.0145,0,0,0,0,0,0,0,0,0,0,0,-0.0071,-0.007,-0.0046,-0.0044,0.0023,0.0024,0.0144,0.0145,0,0,0,0,0,0,0,0,0,0,0,-0.0071,-0.0071,-0.007,-0.0044,0.0023,0.0024,0.0144,0.0088,0,0,0,0,0,0,0,0,0,0,0.0019,-0.002,-0.0071,-0.007,-0.0044,0.0023,0.0024,0.0085,0.0091,0.0119,0,0.0117,0,0.0129,0.0153,0.0153,0,0,0,-0.003,-0.0025,-0.0004,-0.007,-0.0044,0.0023,-0.0003,0.0088,0.0096,0.0127,0.0119,0.0124,0.0131,0.0153,0.0154,0.0201,0.02,0,0,-0.0033,-0.0056,-0.0009,0.0,-0.004,-0.0005,-0.0001,0.0093,0.0093,0.012,0.0126,0.0133,0.0154,0.0155,0.0201,0.02,0,0,0,-0.0054,-0.0059,-0.004,-0.0005,0.0002,-0.0004,0.0001,0.0089,0.0096,0.0128,0.0135,0.0155,0.0156,0.0201,0.0201,0.009,0,0,0,-0.0056,-0.0071,-0.0042,-0.0054,-0.0,0.004,-0.0005,0.0089,0.01,0.0134,0.0155,0.0157,0.0202,0.0201,0.0094,0.0024,0,0,0,-0.0071,-0.0073,-0.0069,-0.0055,-0.0032,0.0039,0.0051,0.0092,0.0104,0.0153,0.0158,0.0202,0.0201,0.0097,0.0031,0.0028,0,0,0,-0.0089,-0.012,-0.007,-0.0104,-0.0033,-0.0032,0.0051,0.0066,0.0097,0.0155,0.0202,0.0201,0.0098,0.0035,0.0032,-0.0042,0,0,0,-0.0144,-0.0127,-0.0149,-0.0103,-0.0139,-0.0039,-0.0056,0.0024,0.01,0.0177,0.0178,0.0093,0.0031,0.0029,-0.0086,0,0,0,0,-0.0177,-0.0198,-0.0199,-0.0204,-0.0173,-0.0152,-0.0063,-0.001,0.0059,0.0114,0.0108,0.0073,0.0075,0.0043,0.0197,0.0197,0.0197,0.0197,0.0197,-0.0271,-0.0263,-0.0315,-0.0303,-0.0296,-0.0222,-0.0189,-0.0097,-0.0009,0.0007,-0.0005,-0.0071,-0.011,0.0023,0.0022,0.0021,0.0021,0.0021,0.002,-0.0377,-0.0406,-0.0409,-0.0457,-0.042,-0.0415,-0.0308,-0.0237,-0.0156,-0.0085,-0.0075,-0.0058,0.001,0.0012,0.0014,0.0015,0.0016,0.0016,0.0017,-0.0435,-0.045,-0.0488,-0.0565,-0.0597,-0.0543,-0.0556,-0.0431,-0.0279,-0.0272,-0.0245,-0.0133,-0.0135,-0.0244,-0.0244,-0.0245,-0.0245,-0.0245,-0.0245,-0.0465,-0.0507,-0.0609,-0.0678,-0.074,-0.0773,-0.0694,-0.063,-0.0463,-0.0391,-0.0295,-0.0159,-0.015,-0.0148,-0.0251,-0.025,-0.0249,-0.0248,-0.0248,-0.0492,-0.0545,-0.0708,-0.08,-0.0953,-0.0969,-0.091,-0.0757,-0.0685,-0.0573,-0.0424,-0.0414,-0.0373,-0.0359,-0.0361,-0.0531,-0.0533,-0.0534,0,-0.0513,-0.055,-0.0801,-0.0983,-0.1114,-0.1094,-0.1052,-0.094,-0.0711,-0.0712,-0.0649,-0.0488,-0.0477,-0.0436,-0.0425,-0.0434,0,0,0,-0.0527,-0.0628,-0.0804,-0.1027,-0.1188,-0.1111,-0.1039,-0.0984,-0.0758,-0.0687,-0.0568,-0.0559,-0.0429,-0.0266,-0.0178,-0.0168,-0.0158,0,0]}]]